TimeEDT,TemperatureF,Dew PointF,Humidity,Sea Level PressureIn,VisibilityMPH,Wind Direction,Wind SpeedMPH,Gust SpeedMPH,PrecipitationIn,Events,Conditions,WindDirDegrees,DateUTC
12:06 AM,55.0,53.1,93,29.75,9.0,ENE,5.8,-,0.01,Rain,Light Rain,60,2014-03-17 04:06:00
12:53 AM,53.1,51.1,93,29.74,10.0,North,9.2,-,0.02,Rain,Light Rain,10,2014-03-17 04:53:00
1:53 AM,51.1,48.9,92,29.73,10.0,North,10.4,-,0.01,Rain,Light Rain,360,2014-03-17 05:53:00
2:31 AM,50.0,48.0,93,29.76,10.0,North,6.9,-,0.00,Rain,Light Rain,360,2014-03-17 06:31:00
2:48 AM,50.0,48.2,94,29.75,10.0,North,6.9,-,0.00,,Overcast,10,2014-03-17 06:48:00
2:53 AM,50.0,48.0,93,29.75,10.0,North,6.9,-,0.00,,Overcast,350,2014-03-17 06:53:00
3:53 AM,48.0,45.0,89,29.75,10.0,North,13.8,19.6,0.00,Rain,Light Rain,350,2014-03-17 07:53:00
4:53 AM,46.0,43.0,89,29.74,10.0,North,12.7,-,0.00,,Overcast,360,2014-03-17 08:53:00
5:28 AM,45.0,42.1,90,29.75,10.0,NNE,10.4,-,0.01,Rain,Light Rain,20,2014-03-17 09:28:00
5:53 AM,43.0,39.9,89,29.76,10.0,North,12.7,-,0.01,Rain,Light Rain,10,2014-03-17 09:53:00
6:53 AM,41.0,39.0,93,29.78,6.0,North,10.4,-,0.01,Rain,Light Rain,10,2014-03-17 10:53:00
7:53 AM,41.0,37.9,89,29.82,10.0,North,9.2,-,0.04,Rain,Light Rain,360,2014-03-17 11:53:00
8:53 AM,41.0,37.9,89,29.83,10.0,North,9.2,-,0.01,Rain,Light Rain,360,2014-03-17 12:53:00
9:36 AM,41.0,37.0,86,29.81,1.8,NNE,12.7,-,0.00,Rain,Light Rain,30,2014-03-17 13:36:00
9:53 AM,39.9,37.9,93,29.79,2.0,NNE,13.8,-,0.01,Rain,Light Rain,30,2014-03-17 13:53:00
10:00 AM,41.0,37.9,89,29.82,1.8,North,15.0,-,0.00,Rain,Light Rain,360,2014-03-17 14:00:00
10:26 AM,41.0,37.9,89,29.83,1.2,NNE,12.7,-,0.01,Rain,Light Rain,30,2014-03-17 14:26:00
10:39 AM,41.0,37.9,89,29.83,1.5,NNE,11.5,-,0.02,Rain,Light Rain,20,2014-03-17 14:39:00
10:51 AM,42.8,39.2,87,29.81,2.5,NNE,11.5,-,0.03,Rain,Light Rain,30,2014-03-17 14:51:00
10:53 AM,42.1,39.0,89,29.82,2.5,NNE,12.7,-,0.03,Rain,Light Rain,30,2014-03-17 14:53:00
11:01 AM,41.0,37.9,89,29.84,4.0,NNE,12.7,-,0.00,Rain,Light Rain,30,2014-03-17 15:01:00
11:39 AM,42.1,39.0,89,29.85,10.0,North,9.2,-,0.00,,Overcast,360,2014-03-17 15:39:00
11:49 AM,42.8,37.4,81,29.85,6.0,North,10.4,-,0.00,Rain,Light Rain,10,2014-03-17 15:49:00
11:53 AM,42.1,39.0,89,29.85,6.0,North,10.4,-,0.00,Rain,Light Rain,10,2014-03-17 15:53:00
12:53 PM,42.1,39.0,89,29.89,7.0,NNE,10.4,-,0.00,,Overcast,20,2014-03-17 16:53:00
1:53 PM,42.1,37.9,85,29.86,10.0,North,11.5,-,0.00,,Overcast,360,2014-03-17 17:53:00
2:06 PM,42.1,37.9,85,29.85,10.0,NNE,12.7,-,N/A,,Overcast,20,2014-03-17 18:06:00
2:33 PM,42.1,37.9,85,29.84,10.0,NNE,11.5,-,N/A,,Overcast,20,2014-03-17 18:33:00
2:53 PM,42.1,37.9,85,29.85,10.0,North,10.4,-,0.00,Rain,Light Rain,10,2014-03-17 18:53:00
3:53 PM,42.1,39.0,89,29.84,10.0,NNE,12.7,-,0.02,,Overcast,30,2014-03-17 19:53:00
4:53 PM,42.1,39.0,89,29.84,6.0,NNE,10.4,-,0.02,Rain,Light Rain,20,2014-03-17 20:53:00
5:53 PM,41.0,37.9,89,29.84,7.0,NNE,12.7,-,0.04,Rain,Light Rain,20,2014-03-17 21:53:00
6:53 PM,41.0,37.9,89,29.85,4.0,NNE,10.4,-,0.04,Rain,Light Rain,30,2014-03-17 22:53:00
7:00 PM,41.0,37.9,89,29.85,4.0,NNE,11.5,-,0.01,Rain,Light Rain,30,2014-03-17 23:00:00
7:53 PM,41.0,37.9,89,29.86,10.0,NE,6.9,-,0.04,Rain,Light Rain,40,2014-03-17 23:53:00
8:53 PM,41.0,37.9,89,29.85,8.0,NE,10.4,-,0.02,Rain,Light Rain,40,2014-03-18 00:53:00
9:29 PM,41.0,37.9,89,29.87,10.0,NNE,8.1,-,0.02,Rain,Light Rain,20,2014-03-18 01:29:00
9:36 PM,41.0,37.9,89,29.88,10.0,North,8.1,-,0.02,Rain,Light Rain,10,2014-03-18 01:36:00
9:53 PM,41.0,37.9,89,29.89,10.0,North,10.4,-,0.02,,Overcast,10,2014-03-18 01:53:00
10:53 PM,39.9,37.0,89,29.90,10.0,NNE,12.7,-,N/A,,Overcast,20,2014-03-18 02:53:00
11:53 PM,39.9,37.0,89,29.91,4.0,North,10.4,-,0.00,Rain,Light Rain,360,2014-03-18 03:53:00